Regional Weather Roundup
Issued by NWS

Home | Current Version | Previous Version | Graphics & Text | Print | Product List | Glossary On
Versions: 1 2 3 4 5 6 7 8 9 10 11 12 13 14 15 16 17 18 19 20 21 22 23 24 25 26 27 28 29 30 31 32 33 34 35 36 37 38 39 40 41 42 43 44 45 46 47 48 49 50
000
ASUS43 KLSX 260959
RWRMO

WEATHER SUMMARY FOR MISSOURI
NATIONAL WEATHER SERVICE SPRINGFIELD MO
400 AM CST MON JAN 26 2015

NOTE: "FAIR" INDICATES FEW OR NO CLOUDS BELOW 12,000 FEET WITH NO
       SIGNIFICANT WEATHER AND/OR OBSTRUCTIONS TO VISIBILITY.
       CURRENT SKY AND/OR WEATHER CONDITIONS ARE NOT AVAILABLE FOR
       CHILLICOTHE AND FARMINGTON.

MOZ001>031-035>038-043-044-053-054-261100-
...NORTHERN AND WESTERN MISSOURI...

CITY           SKY/WX    TMP DP  RH WIND       PRES   REMARKS
KANSAS CTY INT CLEAR     25  25 100 SW8       30.06F WCI  16
KANSAS C DTWN  CLEAR     28  26  92 S5        30.08F WCI  23
LEE`S SUMMIT   CLEAR     27  25  92 SW5       30.07F WCI  22
ST JOSEPH      CLEAR     25  23  92 S6        30.06F WCI  18
CHILLICOTHE      N/A     31  28  89 CALM      30.08S
KIRKSVILLE     CLOUDY    30  26  85 W5        30.04R WCI  25

$$
MOZ066>068-077>081-088>096-101>105-261100-
...SOUTHWEST MISSOURI...

CITY           SKY/WX    TMP DP  RH WIND       PRES   REMARKS
SPRINGFIELD    CLOUDY    32  27  81 N6        30.07F WCI  26
JOPLIN         CLEAR     27  24  89 CALM      30.12S

$$
MOZ032>034-039>042-045>050-055>058-069>072-261100-
...CENTRAL MISSOURI...

CITY           SKY/WX    TMP DP  RH WIND       PRES   REMARKS
COLUMBIA       PTCLDY    29  25  85 W3        30.05F
JEFFERSON CITY CLOUDY    32  26  78 NW7       30.08F WCI  26
ROLLA          CLOUDY    29  26  89 W7        30.03F WCI  22
SEDALIA        MOCLDY    30  27  88 W5        30.08S WCI  25
OSAGE BEACH    CLOUDY    32  27  80 CALM      30.06F

$$
MOZ051-052-059>065-261100-
...EAST CENTRAL MISSOURI...

CITY           SKY/WX    TMP DP  RH WIND       PRES   REMARKS
ST LOUIS INTL  PTCLDY    26  19  74 W6        30.04S WCI  19
SPIRIT OF STL  MOCLDY    28  22  78 W7        30.04F WCI  21
ST CHARLES     PTCLDY    27  21  78 NW9       30.04F WCI  18

$$
MOZ072>076-082>087-097>100-106>115-261100-
...SOUTH CENTRAL AND SOUTHEAST MISSOURI...

CITY           SKY/WX    TMP DP  RH WIND       PRES   REMARKS
CAPE GIRARDEAU MOCLDY    32  28  85 NW12      30.03R WCI  23
FARMINGTON     CLOUDY    30  25  80 MISG      30.05R
POPLAR BLUFF   CLOUDY    35  27  72 NW10      30.04R WCI  27
WEST PLAINS    CLOUDY    33  27  78 NW8       30.05S WCI  26

$$



USA.gov is the U.S. government's official web portal to all federal, state and local government web resources and services.